Hourly Data Report for July 08, 2004

TORONTO CITY
ONTARIO

43°40'00.000" N
79°24'00.000" W
112.50 m
6158355
71508
XTO

Download Data

Hourly Data (July 2004)
Hourly Data Report for July 8, 2004
TIME
LST
Temp Definition
°C
Dew Point Definition
°C
Rel Hum Definition
%
Precip. Amount Definition
mm

Wind Dir Definition
10's deg

Wind Spd Definition
km/h
Visibility Definition
km
Stn Press Definition
kPa
Hmdx Definition


Wind Chill Definition


Weather Definition


00:00 18.6 18.1 97   LegendMM LegendMM LegendMM 99.30     LegendNANA
01:00 18.1 17.8 98   LegendMM LegendMM LegendMM 99.31     LegendNANA
02:00 18.6 18.4 99   LegendMM LegendMM LegendMM 99.30     LegendNANA
03:00 18.8 17.4 92   LegendMM LegendMM LegendMM 99.33     LegendNANA
04:00 18.8 17.0 89   LegendMM LegendMM LegendMM 99.38     LegendNANA
05:00 18.1 16.5 90   LegendMM LegendMM LegendMM 99.43     LegendNANA
06:00 17.7 15.8 89   LegendMM LegendMM LegendMM 99.48     LegendNANA
07:00 18.5 15.9 85   LegendMM LegendMM LegendMM 99.56     LegendNANA
08:00 18.5 14.0 75   LegendMM LegendMM LegendMM 99.63     LegendNANA
09:00 19.6 12.9 65   LegendMM LegendMM LegendMM 99.65     LegendNANA
10:00 20.5 13.1 63   LegendMM LegendMM LegendMM 99.59     LegendNANA
11:00 20.7 14.5 68   LegendMM LegendMM LegendMM 99.63     LegendNANA
12:00 19.7 13.6 68   LegendMM LegendMM LegendMM 99.67     LegendNANA
13:00 20.0 14.1 69   LegendMM LegendMM LegendMM 99.67     LegendNANA
14:00 18.2 14.7 80   LegendMM LegendMM LegendMM 99.71     LegendNANA
15:00 18.0 15.5 85   LegendMM LegendMM LegendMM 99.71     LegendNANA
16:00 19.7 15.0 74   LegendMM LegendMM LegendMM 99.69     LegendNANA
17:00 18.0 14.9 82   LegendMM LegendMM LegendMM 99.69     LegendNANA
18:00 19.0 14.0 73   LegendMM LegendMM LegendMM 99.75     LegendNANA
19:00 18.3 12.9 71   LegendMM LegendMM LegendMM 99.81     LegendNANA
20:00 18.0 12.4 70   LegendMM LegendMM LegendMM 99.85     LegendNANA
21:00 17.6 12.1 70   LegendMM LegendMM LegendMM 99.91     LegendNANA
22:00 16.9 12.3 74   LegendMM LegendMM LegendMM 99.95     LegendNANA
23:00 16.1 12.2 78   LegendMM LegendMM LegendMM 100.01     LegendNANA

Notes on Data Quality.

Legend

  • E = Estimated
  • M = Missing
  • NA = Not Available*
  • [empty] = Indicates an unobserved value
Date modified: